EW6055 Weather Reports


Display with metric or nautical units.
time (UTC)temp
F
wind
direction
speed
MPH
gust
MPH
rain 1hr
in
rain 24hr
in
rain mn
in
humidity
%
barometer
mb
20260905205003 71 278 0.0 1.0 0.00 0.09 0.01 56 1014.4
20260905204503 71 277 0.0 2.0 0.00 0.09 0.01 58 1014.6
20260905204003 70 265 0.0 2.0 0.00 0.09 0.01 57 1014.5
20260905203502 71 230 0.0 2.0 0.00 0.09 0.01 55 1014.6
20260905203003 71 204 0.0 2.0 0.00 0.09 0.01 56 1014.6
20260905202502 70 31 0.0 2.0 0.00 0.09 0.01 58 1014.6
20260905202002 70 99 0.0 1.0 0.00 0.09 0.01 60 1014.5
20260905201502 69 104 0.0 1.0 0.00 0.09 0.01 57 1014.6
20260905201003 70 59 0.0 1.0 0.00 0.09 0.01 57 1014.6
20260905200524 70 342 0.0 1.0 0.00 0.09 0.01 56 1014.6
20260905200024 70 325 0.0 1.0 0.00 0.09 0.01 57 1014.7
20260905195502 70 324 0.0 2.0 0.00 0.09 0.01 61 1014.7
20260905195002 70 344 0.0 2.0 0.00 0.09 0.01 60 1014.7
20260905194502 70 316 1.0 2.0 0.00 0.09 0.01 58 1014.8
20260905194003 70 286 1.0 2.0 0.00 0.09 0.01 59 1014.8
20260905193503 70 281 0.0 3.0 0.00 0.09 0.01 60 1014.8
20260905193003 70 323 1.0 3.0 0.00 0.09 0.01 60 1014.8
20260905192503 70 319 1.0 2.0 0.00 0.09 0.01 60 1014.8
20260905192023 70 339 1.0 2.0 0.00 0.09 0.01 60 1014.9
20260905191503 70 334 1.0 2.0 0.00 0.09 0.01 60 1014.9
20260905191024 71 317 1.0 2.0 0.00 0.09 0.01 60 1014.9
20260905190524 70 317 0.0 2.0 0.00 0.09 0.01 62 1014.9
20260905190003 69 346 1.0 2.0 0.00 0.09 0.01 62 1014.9
20260905185502 68 1 1.0 2.0 0.00 0.09 0.01 63 1015.0
20260905185003 68 345 1.0 2.0 0.00 0.09 0.01 64 1015.0
20260905184524 68 339 1.0 2.0 0.00 0.09 0.01 65 1015.0
20260905184002 68 326 1.0 2.0 0.00 0.09 0.01 65 1015.0
20260905183503 68 330 1.0 4.0 0.00 0.09 0.01 65 1015.1
20260905183003 68 340 1.0 4.0 0.00 0.09 0.01 65 1015.2
20260905182503 68 336 1.0 3.0 0.00 0.09 0.01 64 1015.2
20260905182003 68 331 0.0 3.0 0.00 0.09 0.01 66 1015.2
20260905181502 67 32 0.0 2.0 0.00 0.09 0.01 67 1015.2
20260905181002 67 20 1.0 2.0 0.00 0.09 0.01 68 1015.3
20260905180503 66 356 0.0 2.0 0.00 0.09 0.01 67 1015.3
20260905180003 66 2 0.0 2.0 0.00 0.09 0.01 69 1015.3
20260905175524 66 341 1.0 3.0 0.00 0.09 0.01 69 1015.3
20260905175024 65 328 1.0 3.0 0.00 0.09 0.01 70 1015.4
20260905174503 65 344 1.0 2.0 0.00 0.09 0.01 71 1015.4
20260905174003 65 359 1.0 3.0 0.00 0.09 0.01 70 1015.4
20260905173523 65 354 0.0 3.0 0.00 0.09 0.01 71 1015.4
20260905173003 64 338 0.0 2.0 0.00 0.09 0.01 74 1015.4
20260905172502 64 360 0.0 2.0 0.00 0.09 0.01 76 1015.4
20260905172003 63 332 1.0 7.0 0.00 0.09 0.01 77 1015.4
20260905171503 62 326 1.0 7.0 0.00 0.09 0.01 77 1015.4
20260905171003 62 331 1.0 4.0 0.00 0.09 0.01 78 1015.4
20260905170524 62 339 1.0 4.0 0.00 0.09 0.01 79 1015.4
20260905170003 62 338 1.0 4.0 0.00 0.09 0.01 80 1015.4
20260905165502 61 338 0.0 2.0 0.00 0.09 0.01 80 1015.5
20260905165003 61 53 0.0 1.0 0.00 0.09 0.01 83 1015.4
20260905164503 60 36 0.0 1.0 0.00 0.09 0.01 84 1015.5
20260905164024 60 334 1.0 3.0 0.00 0.09 0.01 85 1015.5
20260905163524 59 331 1.0 5.0 0.00 0.09 0.01 85 1015.4
20260905163003 59 358 1.0 5.0 0.00 0.09 0.01 87 1015.4
20260905162503 59 18 1.0 2.0 0.00 0.09 0.01 88 1015.4
20260905162024 58 6 1.0 2.0 0.00 0.09 0.01 89 1015.4
20260905161503 58 8 0.0 3.0 0.00 0.09 0.01 91 1015.5
20260905161003 57 9 0.0 3.0 0.00 0.09 0.01 92 1015.5
20260905160503 57 0 0.0 0.0 0.00 0.09 0.01 93 1015.4
20260905160003 56 0 0.0 0.0 0.00 0.09 0.01 94 1015.5
20260905155503 56 60 0.0 1.0 0.00 0.09 0.01 95 1015.5
20260905155003 56 60 0.0 1.0 0.00 0.09 0.01 95 1015.5
20260905154503 56 0 0.0 0.0 0.00 0.09 0.01 95 1015.5
20260905154003 56 0 0.0 0.0 0.00 0.09 0.01 96 1015.5
20260905153503 55 0 0.0 0.0 0.00 0.09 0.01 96 1015.5
20260905153003 55 0 0.0 0.0 0.00 0.09 0.01 96 1015.5
20260905152503 55 0 0.0 0.0 0.00 0.09 0.01 96 1015.5
20260905152003 54 0 0.0 0.0 0.00 0.10 0.01 96 1015.5
20260905151503 54 0 0.0 0.0 0.00 0.11 0.01 95 1015.5
20260905151024 54 0 0.0 0.0 0.00 0.12 0.01 95 1015.5
20260905150524 54 0 0.0 0.0 0.00 0.13 0.01 95 1015.5
20260905150024 54 0 0.0 0.0 0.00 0.13 0.01 95 1015.5
20260905145502 54 0 0.0 0.0 0.00 0.14 0.01 95 1015.5
20260905145003 54 0 0.0 0.0 0.00 0.15 0.01 95 1015.6
20260905144503 54 325 0.0 1.0 0.00 0.15 0.01 95 1015.6
20260905144003 54 325 0.0 1.0 0.00 0.15 0.01 95 1015.5
20260905143503 54 0 0.0 0.0 0.00 0.15 0.01 95 1015.5
20260905143024 54 0 0.0 0.0 0.00 0.15 0.01 95 1015.5
20260905142503 54 0 0.0 0.0 0.00 0.15 0.01 95 1015.4
20260905142003 54 0 0.0 0.0 0.00 0.15 0.01 95 1015.4
20260905141503 54 0 0.0 0.0 0.00 0.15 0.01 95 1015.4
20260905141003 54 0 0.0 0.0 0.00 0.15 0.01 95 1015.4
20260905140503 53 0 0.0 0.0 0.00 0.15 0.01 95 1015.3
20260905140003 53 0 0.0 0.0 0.00 0.15 0.01 95 1015.3
20260905135524 53 0 0.0 0.0 0.00 0.15 0.01 95 1015.3
20260905135003 53 353 0.0 1.0 0.00 0.15 0.01 95 1015.3
20260905134503 53 353 0.0 1.0 0.00 0.15 0.01 95 1015.2
20260905134003 53 0 0.0 0.0 0.00 0.15 0.01 95 1015.2
20260905133503 53 0 0.0 0.0 0.00 0.15 0.01 94 1015.2
20260905133024 53 0 0.0 0.0 0.00 0.15 0.01 94 1015.1
20260905132503 53 0 0.0 0.0 0.00 0.15 0.01 94 1015.1
20260905132003 53 0 0.0 0.0 0.00 0.15 0.01 95 1015.1
20260905131503 53 0 0.0 0.0 0.00 0.15 0.01 95 1015.0
20260905131003 53 0 0.0 0.0 0.00 0.15 0.01 95 1015.0
20260905130503 53 0 0.0 0.0 0.01 0.15 0.01 95 1014.9
20260905130003 54 0 0.0 0.0 0.01 0.15 0.01 95 1014.9
20260905125503 54 0 0.0 0.0 0.01 0.15 0.01 95 1014.9
20260905125003 54 0 0.0 0.0 0.01 0.15 0.01 95 1015.0
20260905124503 54 0 0.0 0.0 0.01 0.15 0.01 95 1014.9
20260905124003 54 0 0.0 0.0 0.01 0.15 0.01 95 1014.8
20260905123503 54 0 0.0 0.0 0.01 0.15 0.01 95 1014.9
20260905123003 54 0 0.0 0.0 0.01 0.15 0.01 95 1014.8
20260905122524 54 0 0.0 0.0 0.01 0.15 0.01 95 1014.8
20260905122003 54 0 0.0 0.0 0.01 0.15 0.01 95 1014.9
20260905121503 54 0 0.0 0.0 0.01 0.15 0.01 95 1014.9
20260905121003 54 0 0.0 0.0 0.01 0.15 0.01 95 1014.9
20260905120503 54 0 0.0 0.0 0.00 0.14 0.00 95 1014.8
20260905120024 55 0 0.0 0.0 0.00 0.14 0.00 95 1014.9
20260905115503 55 0 0.0 0.0 0.00 0.14 0.00 95 1014.8
20260905115003 55 0 0.0 0.0 0.00 0.14 0.00 95 1014.8
20260905114524 55 0 0.0 0.0 0.00 0.14 0.00 95 1014.7
20260905114003 55 0 0.0 0.0 0.00 0.14 0.00 95 1014.7
20260905113503 55 0 0.0 0.0 0.00 0.14 0.00 95 1014.8
20260905113003 55 0 0.0 0.0 0.00 0.14 0.00 95 1014.8
20260905112524 55 0 0.0 0.0 0.00 0.15 0.00 95 1014.8
20260905112024 55 0 0.0 0.0 0.00 0.15 0.00 95 1014.7
20260905111503 55 0 0.0 0.0 0.00 0.16 0.00 95 1014.8
20260905111024 55 0 0.0 0.0 0.00 0.16 0.00 95 1014.8
20260905110503 55 0 0.0 0.0 0.00 0.17 0.00 95 1014.7
20260905110003 55 0 0.0 0.0 0.00 0.17 0.00 95 1014.8
20260905105503 55 0 0.0 0.0 0.00 0.17 0.00 95 1014.8
20260905105003 55 0 0.0 0.0 0.00 0.18 0.00 95 1014.7
20260905104524 55 0 0.0 0.0 0.00 0.18 0.00 95 1014.8
20260905104003 55 0 0.0 0.0 0.00 0.18 0.00 95 1014.7
20260905103503 55 0 0.0 0.0 0.00 0.18 0.00 95 1014.8
20260905103003 54 0 0.0 0.0 0.00 0.19 0.00 95 1014.8
20260905102503 54 0 0.0 0.0 0.00 0.19 0.00 95 1014.8
20260905102003 54 0 0.0 0.0 0.00 0.20 0.00 94 1014.8
20260905101503 54 0 0.0 0.0 0.00 0.20 0.00 94 1014.9
20260905101003 54 0 0.0 0.0 0.00 0.20 0.00 94 1014.8
20260905100503 54 0 0.0 0.0 0.00 0.20 0.00 94 1014.8
20260905100003 55 0 0.0 0.0 0.00 0.20 0.00 94 1014.8
20260905095503 55 0 0.0 0.0 0.00 0.20 0.00 94 1014.8
20260905095003 55 0 0.0 0.0 0.00 0.20 0.00 94 1014.8
20260905094524 55 0 0.0 0.0 0.00 0.20 0.00 94 1014.8
20260905094003 55 0 0.0 0.0 0.00 0.20 0.00 94 1014.8
20260905093503 55 0 0.0 0.0 0.00 0.20 0.00 94 1014.8
20260905093003 55 0 0.0 0.0 0.00 0.20 0.00 94 1014.7
20260905092503 55 0 0.0 0.0 0.00 0.20 0.00 94 1014.7
20260905092003 55 0 0.0 0.0 0.00 0.20 0.00 94 1014.8
20260905091503 55 0 0.0 0.0 0.00 0.20 0.00 94 1014.7
20260905091003 55 0 0.0 0.0 0.00 0.20 0.00 94 1014.6
20260905090503 55 0 0.0 0.0 0.00 0.20 0.00 94 1014.6
20260905090003 55 0 0.0 0.0 0.00 0.20 0.00 94 1014.6
20260905085524 55 0 0.0 0.0 0.00 0.20 0.00 94 1014.7
20260905085003 55 0 0.0 0.0 0.00 0.20 0.00 94 1014.7
20260905084503 55 0 0.0 0.0 0.00 0.20 0.00 94 1014.6
20260905084003 55 0 0.0 0.0 0.00 0.20 0.00 94 1014.6
20260905083503 55 0 0.0 0.0 0.00 0.20 0.00 94 1014.6
20260905083003 55 0 0.0 0.0 0.00 0.20 0.00 94 1014.6
20260905082524 55 0 0.0 0.0 0.00 0.20 0.00 94 1014.6
20260905082003 55 0 0.0 0.0 0.00 0.20 0.00 94 1014.5
20260905081503 55 0 0.0 0.0 0.00 0.20 0.00 94 1014.4
20260905081003 55 0 0.0 0.0 0.00 0.20 0.00 94 1014.4
20260905080503 55 0 0.0 0.0 0.00 0.20 0.00 94 1014.4
20260905080003 55 0 0.0 0.0 0.00 0.20 0.00 94 1014.4
20260905075503 56 0 0.0 0.0 0.00 0.20 0.00 94 1014.4
20260905075003 56 0 0.0 0.0 0.00 0.20 0.00 94 1014.4
20260905074503 56 0 0.0 0.0 0.00 0.20 0.00 94 1014.4
20260905074003 56 0 0.0 0.0 0.00 0.20 0.00 94 1014.3
20260905073503 56 0 0.0 0.0 0.00 0.20 0.00 94 1014.2
20260905073003 56 0 0.0 0.0 0.00 0.20 0.00 94 1014.2
20260905072503 56 0 0.0 0.0 0.00 0.20 0.00 94 1014.2
20260905072003 56 0 0.0 0.0 0.00 0.20 0.00 94 1014.1
20260905071503 56 0 0.0 0.0 0.00 0.20 0.00 94 1014.1
20260905071003 56 0 0.0 0.0 0.00 0.20 0.00 94 1014.1
20260905070503 56 137 0.0 1.0 0.00 0.20 0.00 94 1014.2
20260905070003 55 175 0.0 1.0 0.00 0.20 0.00 94 1014.2
20260905065524 55 189 0.0 2.0 0.00 0.20 0.20 94 1014.1
20260905065003 55 184 1.0 2.0 0.00 0.20 0.20 94 1014.1
20260905064503 55 179 0.0 1.0 0.00 0.20 0.20 94 1014.1
20260905064003 55 184 0.0 1.0 0.00 0.20 0.20 94 1014.0
20260905063524 55 139 0.0 1.0 0.00 0.20 0.20 94 1014.0
20260905063003 55 138 0.0 1.0 0.00 0.20 0.20 94 1013.9
20260905062503 55 0 0.0 0.0 0.00 0.20 0.20 94 1013.9
20260905062024 55 0 0.0 0.0 0.00 0.20 0.20 94 1013.8
20260905061503 55 0 0.0 0.0 0.00 0.20 0.20 94 1013.8
20260905061024 55 130 0.0 1.0 0.00 0.20 0.20 94 1013.8
20260905060503 55 141 0.0 1.0 0.00 0.20 0.20 93 1013.8
20260905060003 55 159 0.0 1.0 0.00 0.20 0.20 93 1013.8
20260905055524 55 158 0.0 1.0 0.00 0.20 0.20 93 1013.9
20260905055003 55 139 0.0 1.0 0.00 0.20 0.20 93 1013.9
20260905054524 55 109 0.0 1.0 0.00 0.20 0.20 93 1013.8
20260905054003 55 0 0.0 0.0 0.00 0.20 0.20 93 1013.8
20260905053524 55 0 0.0 0.0 0.00 0.20 0.20 93 1013.9
20260905053003 55 0 0.0 0.0 0.00 0.20 0.20 93 1013.9
20260905052524 55 0 0.0 0.0 0.00 0.20 0.20 93 1013.8
20260905052024 55 0 0.0 0.0 0.00 0.20 0.20 93 1013.8
20260905051524 55 98 0.0 1.0 0.00 0.20 0.20 93 1013.8
20260905051024 55 98 0.0 1.0 0.00 0.20 0.20 92 1013.8
20260905050503 55 0 0.0 0.0 0.00 0.20 0.20 92 1013.7
20260905050003 55 0 0.0 0.0 0.00 0.20 0.20 92 1013.7
20260905045524 55 0 0.0 0.0 0.00 0.20 0.20 92 1013.6
20260905045003 55 0 0.0 0.0 0.00 0.20 0.20 91 1013.7
20260905044503 55 0 0.0 0.0 0.00 0.20 0.20 91 1013.7
20260905044024 55 0 0.0 0.0 0.00 0.20 0.20 91 1013.8
20260905043503 55 0 0.0 0.0 0.00 0.20 0.20 91 1013.7
20260905043003 55 0 0.0 0.0 0.00 0.20 0.20 91 1013.7
20260905042503 55 0 0.0 0.0 0.00 0.20 0.20 91 1013.7
20260905042003 55 0 0.0 0.0 0.00 0.20 0.20 90 1013.6
20260905041503 56 0 0.0 0.0 0.00 0.20 0.20 90 1013.6
20260905041003 56 0 0.0 0.0 0.00 0.20 0.20 90 1013.4
20260905040503 56 0 0.0 0.0 0.00 0.20 0.20 89 1013.3
20260905040003 56 93 0.0 1.0 0.00 0.20 0.20 89 1013.3
20260905035503 56 94 0.0 1.0 0.00 0.20 0.20 89 1013.3
20260905035003 56 97 0.0 1.0 0.00 0.20 0.20 89 1013.3
20260905034503 56 0 0.0 0.0 0.00 0.20 0.20 88 1013.2
20260905034003 56 0 0.0 0.0 0.00 0.20 0.20 88 1013.2
20260905033503 57 0 0.0 0.0 0.00 0.20 0.20 87 1013.2
20260905033003 57 0 0.0 0.0 0.00 0.20 0.20 87 1013.1
20260905032503 57 0 0.0 0.0 0.00 0.20 0.20 86 1013.1
20260905032003 58 0 0.0 0.0 0.00 0.20 0.20 86 1013.1
20260905031503 58 0 0.0 0.0 0.00 0.20 0.20 86 1013.1
20260905031003 58 0 0.0 0.0 0.00 0.20 0.20 85 1013.1
20260905030503 58 0 0.0 0.0 0.00 0.20 0.20 85 1013.0
20260905030003 58 103 0.0 1.0 0.00 0.20 0.20 85 1013.0
20260905025524 59 132 0.0 1.0 0.00 0.20 0.20 85 1013.0
20260905025003 59 190 0.0 1.0 0.00 0.20 0.20 85 1013.0
20260905024524 59 188 0.0 1.0 0.00 0.20 0.20 85 1012.9
20260905024003 59 149 0.0 1.0 0.00 0.20 0.20 84 1012.9
20260905023503 59 118 0.0 1.0 0.00 0.20 0.20 85 1013.0
20260905023003 60 92 0.0 1.0 0.00 0.20 0.20 85 1012.9
20260905022503 60 92 0.0 1.0 0.00 0.20 0.20 85 1012.9
20260905022003 60 111 0.0 1.0 0.00 0.20 0.20 84 1012.9
20260905021503 60 108 1.0 1.0 0.00 0.20 0.20 84 1012.8
20260905021003 60 102 1.0 1.0 0.00 0.20 0.20 84 1012.8
20260905020524 60 96 0.0 1.0 0.00 0.20 0.20 84 1012.7
20260905020003 60 98 0.0 3.0 0.00 0.20 0.20 84 1012.7
20260905015503 60 102 0.0 3.0 0.00 0.20 0.20 84 1012.7
20260905015024 60 97 0.0 2.0 0.00 0.20 0.20 83 1012.7
20260905014503 60 101 0.0 1.0 0.00 0.20 0.20 84 1012.7
20260905014003 60 111 0.0 1.0 0.01 0.20 0.20 84 1012.7
20260905013503 60 110 1.0 3.0 0.01 0.20 0.20 84 1012.6
20260905013003 60 109 0.0 3.0 0.01 0.20 0.20 84 1012.5
20260905012503 60 0 0.0 0.0 0.02 0.20 0.20 85 1012.5
20260905012024 60 0 0.0 0.0 0.02 0.20 0.20 83 1012.4
20260905011524 60 0 0.0 0.0 0.02 0.20 0.20 86 1012.4
20260905011003 60 0 0.0 0.0 0.02 0.20 0.20 88 1012.4
20260905010503 60 0 0.0 0.0 0.02 0.20 0.20 88 1012.3
20260905010003 60 0 0.0 0.0 0.02 0.20 0.20 88 1012.3
20260905005503 60 0 0.0 0.0 0.02 0.20 0.20 87 1012.2
20260905005003 60 0 0.0 0.0 0.02 0.20 0.20 87 1012.3
20260905004503 60 0 0.0 0.0 0.02 0.20 0.20 87 1012.3
20260905004003 60 0 0.0 0.0 0.01 0.19 0.19 86 1012.3
20260905003503 60 0 0.0 0.0 0.01 0.19 0.19 86 1012.2
20260905003003 60 0 0.0 0.0 0.01 0.19 0.19 85 1012.2
20260905002503 60 0 0.0 0.0 0.00 0.18 0.18 85 1012.2
20260905002003 60 147 0.0 1.0 0.00 0.18 0.18 85 1012.2
20260905001503 60 126 0.0 3.0 0.00 0.19 0.18 85 1012.4
20260905001003 60 120 0.0 3.0 0.00 0.19 0.18 85 1012.5
20260905000503 60 116 0.0 3.0 0.00 0.19 0.18 85 1012.4
20260905000003 60 116 0.0 3.0 0.00 0.19 0.18 86 1012.4
20260904235503 60 88 0.0 1.0 0.00 0.19 0.18 86 1012.3
20260904235003 60 88 0.0 1.0 0.00 0.19 0.18 86 1012.2
20260904234503 60 102 0.0 4.0 0.00 0.19 0.18 87 1012.2
20260904234003 60 99 0.0 4.0 0.00 0.19 0.18 87 1012.1
20260904233503 60 74 1.0 4.0 0.00 0.19 0.18 87 1012.2
20260904233003 60 66 1.0 4.0 0.00 0.19 0.18 86 1012.1
20260904232503 60 78 0.0 3.0 0.00 0.19 0.18 87 1012.2
20260904232003 60 67 1.0 3.0 0.00 0.19 0.18 86 1012.1
20260904231503 60 65 1.0 4.0 0.00 0.19 0.18 87 1012.1
20260904231003 60 67 0.0 4.0 0.00 0.19 0.18 86 1012.0
20260904230503 60 54 1.0 8.0 0.00 0.19 0.18 87 1012.0
20260904230003 60 58 1.0 8.0 0.00 0.19 0.18 87 1012.0
20260904225524 60 66 0.0 5.0 0.00 0.20 0.18 87 1012.0
20260904225003 60 56 1.0 6.0 0.00 0.21 0.18 87 1012.0
20260904224503 60 56 1.0 6.0 0.00 0.21 0.18 89 1011.9
20260904224003 60 58 1.0 6.0 0.00 0.22 0.18 90 1012.0
20260904223524 59 66 0.0 3.0 0.00 0.22 0.18 89 1012.1
20260904223003 59 53 0.0 1.0 0.00 0.22 0.18 88 1012.2
20260904222503 59 51 0.0 2.0 0.00 0.22 0.18 88 1012.1
20260904222003 60 51 0.0 2.0 0.01 0.22 0.18 89 1012.2
20260904221503 60 0 0.0 0.0 0.01 0.22 0.18 88 1012.1
20260904221003 59 0 0.0 0.0 0.02 0.22 0.18 88 1012.1
20260904220503 60 42 0.0 1.0 0.03 0.22 0.18 86 1012.1
20260904220003 60 25 0.0 1.0 0.04 0.22 0.18 85 1012.0
20260904215524 60 10 0.0 2.0 0.06 0.22 0.18 86 1012.0
20260904215003 60 14 0.0 2.0 0.06 0.22 0.18 86 1011.9
20260904214503 60 69 0.0 2.0 0.06 0.22 0.18 86 1011.8
20260904214003 60 74 0.0 2.0 0.06 0.22 0.18 86 1011.6
20260904213503 60 84 0.0 2.0 0.06 0.22 0.18 86 1011.6
20260904213004 60 95 0.0 2.0 0.06 0.22 0.18 84 1011.5
20260904212503 61 100 0.0 1.0 0.06 0.22 0.18 83 1011.4
20260904212003 61 0 0.0 0.0 0.05 0.21 0.17 84 1011.4
20260904211503 61 107 0.0 1.0 0.05 0.21 0.17 82 1011.5
20260904211003 61 106 1.0 3.0 0.04 0.20 0.16 82 1011.5
20260904210503 62 127 1.0 3.0 0.03 0.19 0.15 80 1011.6
20260904210004 62 183 2.0 11.0 0.02 0.18 0.14 78 1011.6
20260904205524 63 186 3.0 11.0 0.00 0.16 0.12 73 1011.5